Tracking 19246 objects as of 21-Sep-2018
HD Live streaming from Space Station
objects crossing your sky now

FENGYUN 1C DEB

Track FENGYUN 1C DEB now!
10-day predictions


NORAD ID: 33674
Int'l Code: 1999-025DFK
Perigee: 843.3 km
Apogee: 1,184.3 km
Inclination: 98.6 °
Period: 105.3 minutes
Semi major axis: 7384 km
RCS: 0.0036 m2 (small)
Launch date: May 10, 1999
Source: People's Republic of China (PRC)
Launch site: Taiyaun Space Center, China (TSC)

Note: This is SATELLITE DEBRIS
aabbcc
Your satellite tracking list
Your tracking list is empty




NASA's NSSDC Master Catalog

Two Line Element Set (TLE):
1 33674U 99025DFK 18263.01481235  .00000659  00000-0  67902-3 0  9999
2 33674  98.6187 187.7711 0230846  73.3179 289.3171 13.68026970522786
Source of the keplerian elements: AFSPC